DW9372 Weather Reports


time (UTC)temp
F
wind
direction
speed
knots
gust
knots
rain 1hr
in
rain 24hr
in
rain mn
in
humidity
%
barometer
mb
20260504014558 51 228 0.0 0.0 0.00 0.00 0.00 50 1012.6
20260504014056 51 225 0.9 1.7 0.00 0.00 0.00 48 1012.5
20260504013553 52 225 0.0 1.7 0.00 0.00 0.00 48 1012.4
20260504013050 52 233 0.0 0.9 0.00 0.00 0.00 48 1012.3
20260504012547 53 237 0.0 0.9 0.00 0.00 0.00 47 1012.6
20260504012045 53 220 0.9 1.7 0.00 0.00 0.00 46 1012.4
20260504011542 53 259 2.6 3.5 0.00 0.00 0.00 45 1012.4
20260504011038 53 206 1.7 1.7 0.00 0.00 0.00 45 1012.4
20260504010533 54 252 1.7 2.6 0.00 0.00 0.00 44 1012.4
20260504010030 54 225 0.0 1.7 0.00 0.00 0.00 45 1012.3
20260504005527 54 214 0.9 2.6 0.00 0.00 0.00 44 1012.3
20260504005024 55 232 0.9 2.6 0.00 0.00 0.00 44 1012.4
20260504004522 55 207 1.7 3.5 0.00 0.00 0.00 43 1012.1
20260504004018 55 221 2.6 5.2 0.00 0.00 0.00 43 1012.4
20260504003509 55 221 1.7 2.6 0.00 0.00 0.00 43 1012.3
20260504003006 56 235 1.7 2.6 0.00 0.00 0.00 42 1012.3
20260504002503 56 257 2.6 3.5 0.00 0.00 0.00 41 1012.4
20260504002000 56 227 2.6 3.5 0.00 0.00 0.00 41 1012.3
20260504001457 56 190 1.7 2.6 0.00 0.00 0.00 40 1012.3
20260504000954 57 213 1.7 6.1 0.00 0.00 0.00 40 1012.3
20260504000451 57 284 1.7 6.1 0.00 0.00 0.00 40 1012.3
20260503235948 57 231 2.6 6.1 0.00 0.00 0.00 39 1012.3
20260503235446 57 234 2.6 3.5 0.00 0.00 0.00 39 1012.5
20260503234943 57 239 2.6 3.5 0.00 0.00 0.00 39 1012.3
20260503234440 57 251 0.9 5.2 0.00 0.00 0.00 39 1012.2
20260503233939 57 265 2.6 5.2 0.00 0.00 0.00 38 1012.3
20260503233435 57 265 2.6 5.2 0.00 0.00 0.00 39 1012.3
20260503232931 57 239 1.7 3.5 0.00 0.00 0.00 38 1012.2
20260503232428 58 250 2.6 6.1 0.00 0.00 0.00 38 1012.5
20260503231926 58 266 2.6 6.1 0.00 0.00 0.00 38 1012.2
20260503231423 58 207 6.1 7.8 0.00 0.00 0.00 37 1012.3
20260503230920 58 253 0.9 2.6 0.00 0.00 0.00 40 1012.4
20260503230416 58 245 4.3 6.1 0.00 0.00 0.00 37 1012.3
20260503225914 58 196 0.9 1.7 0.00 0.00 0.00 39 1012.4
20260503225410 58 291 4.3 7.8 0.00 0.00 0.00 37 1012.6
20260503224906 58 256 3.5 7.8 0.00 0.00 0.00 37 1012.6
20260503224403 58 230 2.6 3.5 0.00 0.00 0.00 38 1012.5
20260503223901 59 247 2.6 7.8 0.00 0.00 0.00 37 1012.4
20260503223359 59 260 4.3 8.7 0.00 0.00 0.00 36 1012.5
20260503222854 59 309 3.5 12.2 0.00 0.00 0.00 37 1012.5
20260503222353 59 232 3.5 8.7 0.00 0.00 0.00 36 1012.6
20260503221850 59 227 3.5 6.1 0.00 0.00 0.00 38 1012.7
20260503221349 59 276 3.5 7.0 0.00 0.00 0.00 37 1012.6
20260503220844 59 236 3.5 5.2 0.00 0.00 0.00 37 1012.5
20260503220341 59 235 3.5 6.1 0.00 0.00 0.00 37 1012.4
20260503215838 59 184 4.3 9.6 0.00 0.00 0.00 36 1012.6
20260503215336 59 265 1.7 11.3 0.00 0.00 0.00 38 1012.8
20260503214833 59 294 1.7 5.2 0.00 0.00 0.00 38 1012.5
20260503214330 59 239 5.2 7.8 0.00 0.00 0.00 36 1012.7
20260503213828 59 255 6.1 12.2 0.00 0.00 0.00 35 1012.3
20260503213325 59 237 2.6 11.3 0.00 0.00 0.00 36 1012.7
20260503212822 59 197 4.3 7.8 0.00 0.00 0.00 36 1012.7
20260503212320 59 288 4.3 8.7 0.00 0.00 0.00 35 1012.3
20260503211817 61 234 5.2 8.7 0.00 0.00 0.00 35 1012.4
20260503211314 61 239 10.4 13.0 0.00 0.00 0.00 34 1012.3
20260503210813 59 252 5.2 9.6 0.00 0.00 0.00 36 1012.4
20260503210311 60 229 1.7 11.3 0.00 0.00 0.00 36 1012.2
20260503205805 60 292 3.5 6.1 0.00 0.00 0.00 35 1012.6
20260503205304 60 286 2.6 11.3 0.00 0.00 0.00 35 1012.4
20260503204753 60 175 4.3 11.3 0.00 0.00 0.00 34 1012.4
20260503204251 60 265 1.7 7.0 0.00 0.00 0.00 35 1012.5
20260503203749 60 224 0.9 5.2 0.00 0.00 0.00 36 1012.6
20260503203246 60 226 1.7 5.2 0.00 0.00 0.00 34 1012.6
20260503202743 60 236 3.5 8.7 0.00 0.00 0.00 34 1012.8
20260503202241 60 277 2.6 6.1 0.00 0.00 0.00 36 1012.7
20260503201738 61 232 3.5 7.0 0.00 0.00 0.00 33 1012.6
20260503201236 60 264 5.2 6.1 0.00 0.00 0.00 34 1012.8
20260503200732 61 214 4.3 11.3 0.00 0.00 0.00 34 1013.2
20260503200228 62 236 7.0 8.7 0.00 0.00 0.00 33 1012.8
20260503195725 61 252 3.5 5.2 0.00 0.00 0.00 36 1013.2
20260503195222 60 231 2.6 7.0 0.00 0.00 0.00 36 1013.3
20260503194720 61 77 1.7 6.1 0.00 0.00 0.00 36 1013.3
20260503194215 62 322 4.3 7.0 0.00 0.00 0.00 33 1013.3
20260503193712 62 255 2.6 6.1 0.00 0.00 0.00 35 1013.5
20260503193208 61 290 5.2 8.7 0.00 0.00 0.00 34 1013.6
20260503192703 61 287 4.3 11.3 0.00 0.00 0.00 32 1013.4
20260503192159 62 292 4.3 8.7 0.00 0.00 0.00 32 1013.6
20260503191655 62 189 6.1 11.3 0.00 0.00 0.00 33 1013.7
20260503191153 62 241 3.5 7.8 0.00 0.00 0.00 37 1013.8
20260503190650 61 322 6.1 9.6 0.00 0.00 0.00 35 1013.8
20260503190147 60 289 2.6 7.0 0.00 0.00 0.00 38 1013.9
20260503185643 62 260 4.3 8.7 0.00 0.00 0.00 34 1013.9
20260503185138 60 274 5.2 6.1 0.00 0.00 0.00 35 1014.0
20260503184634 60 246 3.5 7.0 0.00 0.00 0.00 35 1014.4
20260503184130 61 260 5.2 12.2 0.00 0.00 0.00 35 1014.3
20260503183627 60 212 3.5 7.0 0.00 0.00 0.00 35 1014.3
20260503183124 60 275 3.5 7.0 0.00 0.00 0.00 35 1014.5
20260503182622 61 245 6.1 9.6 0.00 0.00 0.00 34 1014.4
20260503182121 61 266 2.6 6.1 0.00 0.00 0.00 38 1014.1
20260503181617 59 288 3.5 9.6 0.00 0.00 0.00 38 1014.4
20260503181114 60 239 6.1 8.7 0.00 0.00 0.00 34 1014.3
20260503180611 61 231 4.3 7.0 0.00 0.00 0.00 35 1014.4
20260503180109 59 185 3.5 8.7 0.00 0.00 0.00 38 1014.7
20260503175605 59 240 2.6 5.2 0.00 0.00 0.00 37 1014.5
20260503175103 58 234 4.3 7.8 0.00 0.00 0.00 37 1014.7
20260503174559 59 264 5.2 8.7 0.00 0.00 0.00 38 1014.8
20260503174056 60 345 5.2 12.2 0.00 0.00 0.00 34 1014.7
20260503173551 59 291 1.7 12.2 0.00 0.00 0.00 44 1014.6
20260503173048 60 259 7.0 9.6 0.00 0.00 0.00 39 1015.0
20260503172545 59 308 5.2 7.0 0.00 0.00 0.00 41 1014.9
20260503172042 58 259 4.3 11.3 0.00 0.00 0.00 39 1015.1
20260503171538 58 275 3.5 6.1 0.00 0.00 0.00 38 1015.1
20260503171036 58 234 3.5 6.1 0.00 0.00 0.00 38 1015.3
20260503170532 58 270 4.3 8.7 0.00 0.00 0.00 38 1015.4
20260503150925 55 261 3.5 7.0 0.00 0.00 0.00 38 1016.3
20260503150421 54 261 3.5 8.7 0.00 0.00 0.00 36 1016.2
20260503131314 47 218 3.5 5.2 0.00 0.00 0.00 49 1017.0
20260503130812 47 316 3.5 6.1 0.00 0.00 0.00 52 1016.9
20260503130309 47 234 1.7 3.5 0.00 0.00 0.00 52 1017.0
20260503110657 32 241 0.0 0.0 0.00 0.00 0.00 99 1016.3
20260503110154 32 241 0.0 0.0 0.00 0.00 0.00 99 1016.3
20260503100120 29 243 0.0 0.0 0.00 0.00 0.00 99 1016.2
20260503081458 29 243 0.0 0.0 0.00 0.00 0.00 98 1016.1
20260503080955 29 243 0.0 0.0 0.00 0.00 0.00 97 1016.4
20260503080451 30 243 0.0 0.0 0.00 0.00 0.00 97 1016.2
20260503072928 31 243 0.0 0.0 0.00 0.00 0.00 97 1016.0
20260503072425 31 243 0.0 0.0 0.00 0.00 0.00 97 1015.9
20260503071922 31 243 0.0 0.0 0.00 0.00 0.00 96 1016.0
20260503071419 31 243 0.0 0.0 0.00 0.00 0.00 96 1016.1
20260503070915 31 243 0.0 0.0 0.00 0.00 0.00 96 1015.8
20260503070412 31 243 0.0 0.0 0.00 0.00 0.00 96 1016.1
20260503060332 32 243 0.0 0.0 0.00 0.00 0.00 94 1016.4
20260503054820 34 243 0.0 0.0 0.00 0.00 0.00 94 1016.5
20260503054316 34 243 0.0 0.0 0.00 0.00 0.00 93 1016.5
20260503053814 34 243 0.0 0.0 0.00 0.00 0.00 93 1016.5
20260503053312 35 243 0.0 0.0 0.00 0.00 0.00 93 1016.4
20260503052808 35 243 0.0 0.0 0.00 0.00 0.00 93 1016.4
20260503052306 35 243 0.0 0.0 0.00 0.00 0.00 93 1016.5
20260503051801 35 243 0.0 0.0 0.00 0.00 0.00 93 1016.7
20260503051258 36 243 0.0 0.0 0.00 0.00 0.00 93 1016.5
20260503050754 36 243 0.0 0.0 0.00 0.00 0.00 93 1016.5
20260503050251 36 243 0.0 0.0 0.00 0.00 0.00 93 1016.4
20260503045748 37 243 0.0 0.0 0.00 0.00 0.00 93 1016.5
20260503045246 37 243 0.0 0.0 0.00 0.00 0.00 92 1016.8
20260503044741 37 243 0.0 0.0 0.00 0.00 0.00 92 1016.7
20260503044239 37 243 0.0 0.0 0.00 0.00 0.00 92 1016.8
20260503043736 37 243 0.0 0.0 0.00 0.00 0.00 91 1016.5
20260503043228 37 243 0.0 0.0 0.00 0.00 0.00 91 1016.7
20260503042723 37 243 0.0 0.0 0.00 0.00 0.00 91 1016.7
20260503042221 37 243 0.0 0.0 0.00 0.00 0.00 91 1016.9
20260503041716 37 243 0.0 0.0 0.00 0.00 0.00 91 1016.8
20260503041215 37 243 0.0 0.0 0.00 0.00 0.00 91 1016.7
20260503040712 37 243 0.0 0.0 0.00 0.00 0.00 91 1016.7
20260503040209 37 242 0.0 0.0 0.00 0.00 0.00 91 1016.8
20260503035706 37 243 0.0 0.0 0.00 0.11 0.11 91 1016.8
20260503035203 37 243 0.0 0.0 0.00 0.11 0.11 91 1016.8
20260503034701 37 242 0.0 0.0 0.00 0.11 0.11 91 1017.1
20260503034157 37 242 0.0 0.0 0.00 0.11 0.11 91 1017.1
20260503033655 37 243 0.0 0.0 0.00 0.11 0.11 91 1016.9
20260503033152 37 242 0.0 0.0 0.00 0.11 0.11 90 1016.9
20260503032650 37 243 0.0 0.0 0.00 0.11 0.11 90 1017.0
20260503032149 37 243 0.0 0.0 0.00 0.11 0.11 90 1017.0
20260503031645 37 243 0.0 0.0 0.00 0.11 0.11 90 1017.0
20260503031143 37 242 0.0 0.0 0.00 0.11 0.11 90 1016.9
20260503030639 37 242 0.0 0.0 0.00 0.11 0.11 90 1017.2
20260503030136 37 242 0.0 0.0 0.00 0.11 0.11 90 1017.3
20260503025632 37 242 0.0 0.0 0.00 0.11 0.11 90 1016.9
20260503025131 37 242 0.0 0.0 0.00 0.11 0.11 90 1017.1
20260503024627 37 251 0.0 0.0 0.00 0.11 0.11 90 1017.2
20260503024124 37 251 0.0 0.0 0.00 0.11 0.11 89 1017.3
20260503023621 37 251 0.0 0.0 0.00 0.11 0.11 89 1017.4
20260503023118 37 251 0.0 0.0 0.00 0.11 0.11 89 1017.3
20260503022614 37 251 0.0 0.0 0.00 0.11 0.11 88 1017.3
20260503022109 37 251 0.0 0.0 0.00 0.11 0.11 87 1017.1
20260503021606 37 251 0.0 0.0 0.00 0.11 0.11 87 1017.1
20260503021103 37 251 0.0 0.0 0.00 0.11 0.11 86 1017.2
20260503020600 37 251 0.0 0.0 0.00 0.11 0.11 86 1017.3
20260503020056 37 251 0.0 0.0 0.00 0.11 0.11 86 1017.2
20260503015554 37 251 0.0 0.0 0.00 0.11 0.11 85 1017.2
20260503015051 37 251 0.0 0.0 0.00 0.11 0.11 85 1017.1